Hourly Weather Cedar Park

Today, 12 June, Saturday

Time Temperature Precipitation Wind Pressure Humidity
00:00 +26°C° 0 mm 4 mps 734 mmHg 89%
01:00 +25°C° 0 mm 4 mps 734 mmHg 91%
02:00 +24°C° 0 mm 3 mps 734 mmHg 94%
03:00 +24°C° 0 mm 3 mps 734 mmHg 94%
04:00 +24°C° 0 mm 2 mps 734 mmHg 95%
05:00 +24°C° 0 mm 2 mps 735 mmHg 96%
06:00 +26°C° 0 mm 3 mps 735 mmHg 87%
07:00 +28°C° 0 mm 4 mps 735 mmHg 79%
08:00 +29°C° 0 mm 5 mps 735 mmHg 71%
09:00 +32°C° 0 mm 4 mps 736 mmHg 64%
10:00 +33°C° 0 mm 4 mps 736 mmHg 58%
11:00 +35°C° 0 mm 3 mps 736 mmHg 51%
12:00 +35°C° 0 mm 3 mps 736 mmHg 48%
13:00 +36°C° 0 mm 3 mps 735 mmHg 46%
14:00 +37°C° 0 mm 3 mps 735 mmHg 43%
15:00 +36°C° 0 mm 3 mps 735 mmHg 47%
16:00 +35°C° 0 mm 3 mps 734 mmHg 51%
17:00 +35°C° 0 mm 3 mps 734 mmHg 55%
18:00 +33°C° 0 mm 3 mps 734 mmHg 61%
19:00 +30°C° 0 mm 3 mps 735 mmHg 67%
20:00 +29°C° 0 mm 3 mps 735 mmHg 73%
21:00 +28°C° 0 mm 3 mps 735 mmHg 77%
22:00 +27°C° 0 mm 3 mps 735 mmHg 80%
23:00 +26°C° 0 mm 3 mps 735 mmHg 83%

Tomorrow, 13 June, Sunday

Time Temperature Precipitation Wind Pressure Humidity
00:00 +26°C° 0 mm 3 mps 735 mmHg 85%
01:00 +26°C° 0 mm 2 mps 735 mmHg 87%
02:00 +25°C° 0 mm 2 mps 735 mmHg 89%
03:00 +25°C° 0 mm 2 mps 735 mmHg 89%
04:00 +25°C° 0 mm 2 mps 736 mmHg 89%
05:00 +25°C° 0 mm 2 mps 736 mmHg 90%
06:00 +27°C° 0 mm 2 mps 736 mmHg 82%
07:00 +29°C° 0 mm 2 mps 736 mmHg 74%
08:00 +30°C° 0 mm 2 mps 737 mmHg 66%
09:00 +32°C° 0 mm 1 mps 737 mmHg 59%
10:00 +34°C° 0 mm 1 mps 737 mmHg 53%
11:00 +34°C° 0 mm 0 mps 736 mmHg 46%
12:00 +36°C° 0 mm 1 mps 736 mmHg 45%
13:00 +36°C° 0 mm 1 mps 736 mmHg 44%
14:00 +38°C° 0 mm 2 mps 735 mmHg 42%
15:00 +37°C° 0 mm 2 mps 735 mmHg 47%
16:00 +37°C° 0 mm 2 mps 735 mmHg 51%
17:00 +36°C° 0 mm 3 mps 734 mmHg 55%
18:00 +34°C° 0 mm 2 mps 734 mmHg 61%
19:00 +31°C° 0 mm 2 mps 735 mmHg 66%
20:00 +30°C° 0 mm 1 mps 735 mmHg 72%
21:00 +29°C° 0 mm 1 mps 735 mmHg 73%
22:00 +29°C° 0 mm 1 mps 735 mmHg 75%
23:00 +28°C° 0 mm 1 mps 735 mmHg 76%

Day after tomorrow, 14 June, Monday

Time Temperature Precipitation Wind Pressure Humidity
00:00 +28°C° 0 mm 1 mps 735 mmHg 77%
01:00 +28°C° 0 mm 1 mps 735 mmHg 78%
02:00 +25°C° 0 mm 0 mps 735 mmHg 79%
03:00 +27°C° 0 mm 1 mps 735 mmHg 79%
04:00 +27°C° 0 mm 1 mps 735 mmHg 80%
05:00 +27°C° 0 mm 2 mps 736 mmHg 80%
06:00 +29°C° 0 mm 2 mps 736 mmHg 75%
07:00 +30°C° 0 mm 2 mps 736 mmHg 69%
08:00 +33°C° 0 mm 3 mps 737 mmHg 64%
09:00 +34°C° 0 mm 3 mps 737 mmHg 58%
10:00 +35°C° 0 mm 3 mps 736 mmHg 53%
11:00 +37°C° 0 mm 3 mps 736 mmHg 47%
12:00 +37°C° 0 mm 4 mps 736 mmHg 44%
13:00 +37°C° 0 mm 4 mps 736 mmHg 42%
14:00 +39°C° 0 mm 5 mps 735 mmHg 40%
15:00 +37°C° 0 mm 5 mps 735 mmHg 44%
16:00 +36°C° 0 mm 5 mps 735 mmHg 49%
17:00 +35°C° 0 mm 5 mps 735 mmHg 53%
18:00 +33°C° 0 mm 4 mps 735 mmHg 61%
19:00 +30°C° 0 mm 3 mps 735 mmHg 68%
20:00 +28°C° 0 mm 2 mps 736 mmHg 76%
21:00 +28°C° 0 mm 2 mps 736 mmHg 77%
22:00 +27°C° 0 mm 2 mps 736 mmHg 78%
23:00 +27°C° 0 mm 1 mps 736 mmHg 80%

15 June, Tuesday

Time Temperature Precipitation Wind Pressure Humidity
00:00 +26°C° 0 mm 1 mps 736 mmHg 81%
01:00 +26°C° 0 mm 2 mps 736 mmHg 82%
02:00 +26°C° 0 mm 2 mps 735 mmHg 83%
03:00 +26°C° 0 mm 2 mps 736 mmHg 83%
04:00 +25°C° 0 mm 2 mps 736 mmHg 83%
05:00 +25°C° 0 mm 2 mps 737 mmHg 83%
06:00 +27°C° 0 mm 3 mps 737 mmHg 78%
07:00 +29°C° 0 mm 3 mps 737 mmHg 72%
08:00 +30°C° 0 mm 3 mps 738 mmHg 67%
09:00 +33°C° 0 mm 3 mps 738 mmHg 61%
10:00 +34°C° 0 mm 3 mps 737 mmHg 56%
11:00 +35°C° 0 mm 3 mps 737 mmHg 51%
12:00 +35°C° 0 mm 3 mps 737 mmHg 49%
13:00 +36°C° 0 mm 4 mps 737 mmHg 47%
14:00 +36°C° 0 mm 4 mps 736 mmHg 45%
15:00 +35°C° 0 mm 3 mps 736 mmHg 51%
16:00 +34°C° 0 mm 3 mps 736 mmHg 56%
17:00 +33°C° 0 mm 3 mps 736 mmHg 62%
18:00 +31°C° 0 mm 3 mps 736 mmHg 63%
19:00 +30°C° 0 mm 3 mps 737 mmHg 63%
20:00 +30°C° 0 mm 2 mps 737 mmHg 64%
21:00 +29°C° 0 mm 2 mps 737 mmHg 69%
22:00 +28°C° 0 mm 2 mps 737 mmHg 74%
23:00 +26°C° 0 mm 2 mps 737 mmHg 80%

16 June, Wednesday

Time Temperature Precipitation Wind Pressure Humidity
00:00 +26°C° 0 mm 2 mps 737 mmHg 81%
01:00 +26°C° 0 mm 1 mps 737 mmHg 82%
02:00 +25°C° 0 mm 1 mps 737 mmHg 84%
03:00 +25°C° 0 mm 1 mps 737 mmHg 84%
04:00 +23°C° 0 mm 0 mps 737 mmHg 84%
05:00 +23°C° 0 mm 0 mps 737 mmHg 84%
06:00 +25°C° 0 mm 0 mps 738 mmHg 76%
07:00 +29°C° 0 mm 1 mps 738 mmHg 68%
08:00 +30°C° 0 mm 1 mps 738 mmHg 59%
09:00 +32°C° 0 mm 1 mps 738 mmHg 56%
10:00 +34°C° 0 mm 2 mps 738 mmHg 52%
11:00 +35°C° 0 mm 2 mps 738 mmHg 49%
12:00 +36°C° 0 mm 3 mps 738 mmHg 47%
13:00 +36°C° 0 mm 3 mps 737 mmHg 45%
14:00 +37°C° 0 mm 4 mps 737 mmHg 43%
15:00 +36°C° 0 mm 4 mps 737 mmHg 45%
16:00 +35°C° 0 mm 4 mps 737 mmHg 48%
17:00 +35°C° 0 mm 4 mps 736 mmHg 50%
18:00 +33°C° 0 mm 3 mps 736 mmHg 57%
19:00 +30°C° 0 mm 3 mps 736 mmHg 65%
20:00 +28°C° 0 mm 3 mps 737 mmHg 72%
21:00 +27°C° 0 mm 3 mps 737 mmHg 72%
22:00 +27°C° 0 mm 2 mps 737 mmHg 73%
23:00 +26°C° 0 mm 2 mps 737 mmHg 74%

17 June, Thursday

Time Temperature Precipitation Wind Pressure Humidity
00:00 +26°C° 0 mm 2 mps 737 mmHg 76%
01:00 +25°C° 0 mm 2 mps 737 mmHg 77%
02:00 +25°C° 0 mm 2 mps 736 mmHg 79%
03:00 +25°C° 0 mm 2 mps 737 mmHg 82%
04:00 +25°C° 0 mm 1 mps 737 mmHg 84%
05:00 +25°C° 0 mm 1 mps 737 mmHg 87%
06:00 +27°C° 0 mm 1 mps 737 mmHg 78%
07:00 +29°C° 0 mm 1 mps 737 mmHg 69%
08:00 +31°C° 0 mm 1 mps 737 mmHg 60%
09:00 +32°C° 0 mm 1 mps 737 mmHg 56%
10:00 +33°C° 0 mm 1 mps 737 mmHg 51%
11:00 +35°C° 0 mm 1 mps 737 mmHg 46%
12:00 +36°C° 0 mm 2 mps 736 mmHg 43%
13:00 +36°C° 0 mm 2 mps 736 mmHg 41%
14:00 +37°C° 0 mm 3 mps 735 mmHg 38%
15:00 +36°C° 0 mm 3 mps 735 mmHg 43%
16:00 +35°C° 0 mm 3 mps 735 mmHg 47%
17:00 +34°C° 0 mm 3 mps 735 mmHg 51%
18:00 +32°C° 0 mm 2 mps 735 mmHg 56%
19:00 +30°C° 0 mm 2 mps 735 mmHg 60%
20:00 +29°C° 0 mm 2 mps 735 mmHg 65%
21:00 +28°C° 0 mm 2 mps 735 mmHg 67%
22:00 +28°C° 0 mm 2 mps 735 mmHg 68%
23:00 +27°C° 0 mm 3 mps 735 mmHg 70%
Show more

We Need Your Consent

Meteoprog and our Service Providers may store and access personal data such as cookies, device identifiers or other similar technologies on your device and process such data to personalise content and ads, as well as provide social media features and to analyse the traffic.

  • Store and/or access information on your device

    Cookies, device identifiers or other information can be stored or accessed on your device for the purposes indicated above.

  • Personalised ads and content, ad and content measurement, audience insights, and products development

    Ads and content can be personalised based on a profile. More data can be added to better personalise ads and content. Ad and content performance can be measured. Insights about the audience who saw the ads and content can be derived. Such data can be used to develop or improve user’s experience, systems and software.

By clicking ‘I Agree’ you will allow the use of indicated cookies, device identifiers, web beacons or other similar technologies. Your settings can be changed in the browser on your device.

For certain purposes, legitimate interests may be relied on, rather than consent. You can read more about this in our Privacy and Cookie Policy.